INTELSAT 15 (IS-15)

Last updated on Jan. 27, 2020, 4:38 a.m. UTC

1 36106U 09067A   20026.37132663 -.00000192  00000-0  00000-0 0  9992
2 36106   0.0125  80.7721 0001974 237.2229  25.9412  1.00272246 17903
UTC
Height (km)
Latitude
Longitude
Inclination
Orbital Period
UTC large
Height (km)
Speed (km/s)
/
Latitude / Longitude
Inclination (degrees)
Orbital Period (minutes)
Azimuth
Elevation
Range (km)
Doppler Factor
iOS Compass Heading
iOS Angle

Next 30 passes for location: Hong Kong

Rise time Rise Azimuth (degrees) Set time Set Azimuth (degrees) Duration Max altitude (degrees)

No matching passes for this satellites